Terminal Aerodrome Forecast
Issued by NWS

Home | Current Version | Previous Version | Text Only | Print | Product List | Glossary On
Versions: 1 2 3 4 5 6 7 8 9 10 11 12 13 14 15 16 17 18 19
000
FTUS45 KBOI 240520
TAFJER
TAF
KJER 240520Z 2406/2506 09008KT P6SM SCT120
     FM241200 06008KT P6SM BKN120
     FM241500 21010KT P6SM VCSH SCT050 BKN100
     FM242100 26010G20KT P6SM -SHRA VCTS SCT050CB BKN100
     FM250200 27008KT P6SM VCSH SCT040 BKN080=

USA.gov is the U.S. government's official web portal to all federal, state and local government web resources and services.